TimeCEST,TemperatureF,Dew PointF,Humidity,Sea Level PressureIn,VisibilityMPH,Wind Direction,Wind SpeedMPH,Gust SpeedMPH,PrecipitationIn,Events,Conditions,WindDirDegrees,DateUTC
12:00 AM,60.8,50.0,68,29.92,-9999.0,Variable,1.2,-,N/A,,Clear,0,2013-04-08 22:00:00
12:30 AM,57.2,50.0,77,29.92,-9999.0,Variable,2.3,-,N/A,,Clear,0,2013-04-08 22:30:00
1:00 AM,60.8,44.6,55,29.92,-9999.0,WSW,4.6,-,N/A,,Clear,250,2013-04-08 23:00:00
1:30 AM,57.2,44.6,63,29.92,-9999.0,West,4.6,-,N/A,,Clear,280,2013-04-08 23:30:00
2:00 AM,58,41,41,29.92,9,SSW,4.6,,,,,200,2013-04-09 00:00:00
2:00 AM,59.0,44.6,59,29.92,-9999.0,SSW,3.5,-,N/A,,Clear,200,2013-04-09 00:00:00
2:30 AM,59.0,44.6,59,29.92,-9999.0,SSW,3.5,-,N/A,,Clear,210,2013-04-09 00:30:00
3:00 AM,57.2,44.6,63,29.92,-9999.0,Variable,1.2,-,N/A,,Clear,0,2013-04-09 01:00:00
3:30 AM,55.4,44.6,67,29.89,-9999.0,Calm,Calm,-,N/A,,Clear,0,2013-04-09 01:30:00
4:00 AM,57.2,42.8,59,29.89,-9999.0,WSW,5.8,-,N/A,,Clear,240,2013-04-09 02:00:00
4:30 AM,55.4,42.8,63,29.89,-9999.0,West,4.6,-,N/A,,Clear,260,2013-04-09 02:30:00
5:00 AM,55.4,42.8,63,29.89,-9999.0,Calm,Calm,-,N/A,,Clear,0,2013-04-09 03:00:00
5:30 AM,55.4,42.8,63,29.89,-9999.0,Variable,1.2,-,N/A,,Clear,0,2013-04-09 03:30:00
6:00 AM,57.2,42.8,59,29.89,-9999.0,SW,3.5,-,N/A,,Clear,220,2013-04-09 04:00:00
6:30 AM,57.2,42.8,59,29.92,-9999.0,SW,3.5,-,N/A,,Clear,230,2013-04-09 04:30:00
7:00 AM,59.0,44.6,59,29.92,-9999.0,WNW,4.6,-,N/A,,Clear,300,2013-04-09 05:00:00
7:30 AM,57.2,44.6,63,29.92,-9999.0,West,5.8,-,N/A,,Clear,270,2013-04-09 05:30:00
8:00 AM,56,42,49,29.94,12,WNW,5.8,,,,Clear,290,2013-04-09 06:00:00
8:00 AM,57.2,44.6,63,29.92,-9999.0,WNW,4.6,-,N/A,,Clear,290,2013-04-09 06:00:00
8:30 AM,57.2,44.6,63,29.95,-9999.0,NW,4.6,-,N/A,,Clear,310,2013-04-09 06:30:00
9:00 AM,60.8,46.4,59,29.95,-9999.0,NNW,5.8,-,N/A,,Clear,340,2013-04-09 07:00:00
9:30 AM,64.4,46.4,52,29.95,-9999.0,SSW,3.5,-,N/A,,Clear,210,2013-04-09 07:30:00
10:00 AM,66.2,46.4,49,29.95,-9999.0,West,4.6,-,N/A,,Clear,270,2013-04-09 08:00:00
10:30 AM,68.0,46.4,46,29.95,-9999.0,West,4.6,-,N/A,,Clear,280,2013-04-09 08:30:00
11:00 AM,69.8,46.4,43,29.95,-9999.0,West,4.6,-,N/A,,Clear,270,2013-04-09 09:00:00
11:30 AM,69.8,46.4,43,29.95,-9999.0,South,8.1,-,N/A,,Clear,190,2013-04-09 09:30:00
12:00 PM,69.8,46.4,43,29.95,-9999.0,South,9.2,-,N/A,,Clear,180,2013-04-09 10:00:00
12:30 PM,71.6,44.6,38,29.95,-9999.0,SSW,9.2,-,N/A,,Clear,210,2013-04-09 10:30:00
1:00 PM,73.4,44.6,36,29.95,-9999.0,South,8.1,-,N/A,,Clear,180,2013-04-09 11:00:00
1:30 PM,75.2,42.8,31,29.92,-9999.0,South,10.4,-,N/A,,Clear,180,2013-04-09 11:30:00
2:00 PM,74,36,15,29.92,19,South,12.7,,,,Scattered Clouds,170,2013-04-09 12:00:00
2:00 PM,75.2,39.2,27,29.92,-9999.0,South,11.5,-,N/A,,Clear,170,2013-04-09 12:00:00
2:30 PM,73.4,41.0,31,29.89,-9999.0,South,13.8,-,N/A,,Clear,170,2013-04-09 12:30:00
3:00 PM,71.6,41.0,33,29.89,-9999.0,South,17.3,-,N/A,,Clear,170,2013-04-09 13:00:00
3:30 PM,71.6,44.6,38,29.89,-9999.0,South,18.4,-,N/A,,Clear,180,2013-04-09 13:30:00
4:00 PM,69.8,46.4,43,29.86,-9999.0,South,16.1,-,N/A,,Clear,180,2013-04-09 14:00:00
4:30 PM,71.6,46.4,41,29.86,-9999.0,South,13.8,-,N/A,,Clear,170,2013-04-09 14:30:00
5:00 PM,71.6,50.0,46,29.86,-9999.0,South,11.5,-,N/A,,Clear,180,2013-04-09 15:00:00
5:30 PM,71.6,50.0,46,29.86,-9999.0,South,8.1,-,N/A,,Clear,180,2013-04-09 15:30:00
6:00 PM,71.6,51.8,50,29.86,-9999.0,SSE,4.6,-,N/A,,Clear,160,2013-04-09 16:00:00
6:30 PM,69.8,53.6,56,29.86,-9999.0,SE,3.5,-,N/A,,Clear,140,2013-04-09 16:30:00
7:00 PM,69.8,53.6,56,29.89,-9999.0,Variable,2.3,-,N/A,,Clear,0,2013-04-09 17:00:00
7:30 PM,66.2,53.6,64,29.89,-9999.0,Variable,5.8,-,N/A,,Clear,0,2013-04-09 17:30:00
8:00 PM,63,51,57,29.90,12,East,6.9,,,,Partly Cloudy,90,2013-04-09 18:00:00
8:00 PM,62.6,53.6,72,29.89,-9999.0,East,5.8,-,N/A,,Clear,80,2013-04-09 18:00:00
8:30 PM,62.6,55.4,77,29.92,-9999.0,NE,3.5,-,N/A,,Clear,50,2013-04-09 18:30:00
9:00 PM,62.6,53.6,72,29.92,-9999.0,NE,3.5,-,N/A,,Clear,50,2013-04-09 19:00:00
9:30 PM,66.2,50.0,56,29.95,-9999.0,NW,4.6,-,N/A,,Clear,320,2013-04-09 19:30:00
10:00 PM,69.8,42.8,38,29.95,-9999.0,NW,9.2,-,N/A,,Clear,310,2013-04-09 20:00:00
10:30 PM,69.8,42.8,38,29.95,-9999.0,WNW,8.1,-,N/A,,Clear,300,2013-04-09 20:30:00
11:00 PM,68.0,44.6,43,29.98,-9999.0,WNW,10.4,-,N/A,,Clear,300,2013-04-09 21:00:00
11:30 PM,68.0,44.6,43,29.98,-9999.0,NW,8.1,-,N/A,,Clear,310,2013-04-09 21:30:00